KLM1221 LFRB-EHGG

Flight info

Callsign KLM1221
Flight time 1h 21m
Altitude 19000
Route SOMEN DCT BETUV Y491 UPALO R111 CAN R50 CMB/N0428F260 N874 VEKIN N873 ADUTO/N0456F340 N873 SPY/N0451F330 N873 GRONY
Aircraft A321/M-SDE3FGHIRWY/LB1

Departure

Time 2026-04-21 18:01
Airport Brest Bretagne airport (LFRB)

Arrival

Time 2026-04-21 19:22
Airport Groningen Airport Eelde (EHGG)
Time Latitude Longitude Altitude Speed Heading
2026-04-21 17:25 48.44447 -4.41995 328 ft 0 kts 200°
2026-04-21 17:51 48.44466 -4.41986 328 ft 4 kts 187°
2026-04-21 17:51 48.44491 -4.41988 328 ft 4 kts 150°
2026-04-21 17:52 48.44507 -4.42015 328 ft 4 kts 102°
2026-04-21 17:52 48.44507 -4.42051 328 ft 2 kts 71°
2026-04-21 17:52 48.44506 -4.42052 328 ft 0 kts 71°
2026-04-21 17:55 48.44508 -4.42048 332 ft 1 kts 71°
2026-04-21 17:55 48.44514 -4.42022 330 ft 7 kts 63°
2026-04-21 17:55 48.44560 -4.42010 332 ft 6 kts 310°
2026-04-21 17:56 48.44571 -4.42068 332 ft 6 kts 280°
2026-04-21 17:56 48.44591 -4.42106 330 ft 4 kts 326°
2026-04-21 17:56 48.44620 -4.42129 329 ft 6 kts 333°
2026-04-21 17:56 48.44667 -4.42156 327 ft 9 kts 328°
2026-04-21 17:57 48.44692 -4.42246 325 ft 13 kts 262°
2026-04-21 17:57 48.44660 -4.42399 317 ft 17 kts 250°
2026-04-21 17:57 48.44617 -4.42582 310 ft 20 kts 252°
2026-04-21 17:57 48.44572 -4.42792 304 ft 22 kts 252°
2026-04-21 17:58 48.44525 -4.43008 300 ft 22 kts 251°
2026-04-21 17:58 48.44476 -4.43220 300 ft 20 kts 251°
2026-04-21 17:58 48.44435 -4.43402 303 ft 19 kts 251°
2026-04-21 17:58 48.44392 -4.43591 301 ft 19 kts 251°
2026-04-21 17:59 48.44373 -4.43751 298 ft 12 kts 278°
2026-04-21 17:59 48.44362 -4.43807 297 ft 4 kts 182°
2026-04-21 17:59 48.44354 -4.43780 297 ft 5 kts 87°
2026-04-21 17:59 48.44365 -4.43716 301 ft 0 kts 67°
2026-04-21 18:00 48.44396 -4.43599 300 ft 40 kts 71°
2026-04-21 18:00 48.44556 -4.42883 303 ft 102 kts 70°
2026-04-21 18:01 48.44832 -4.41645 334 ft 146 kts 71°
2026-04-21 18:01 48.45160 -4.40132 866 ft 149 kts 72°
2026-04-21 18:01 48.45615 -4.38737 1618 ft 152 kts 57°
2026-04-21 18:01 48.46487 -4.37653 1871 ft 179 kts 34°
2026-04-21 18:02 48.47802 -4.37159 1999 ft 211 kts 13°
2026-04-21 18:02 48.49351 -4.37092 2155 ft 237 kts 10°
2026-04-21 18:02 48.51090 -4.36966 2439 ft 254 kts 16°
2026-04-21 18:02 48.52834 -4.36495 3148 ft 258 kts 18°
2026-04-21 18:03 48.54632 -4.35932 3754 ft 267 kts 18°
2026-04-21 18:03 48.56505 -4.35626 4500 ft 276 kts
2026-04-21 18:03 48.58430 -4.35868 5321 ft 278 kts 358°
2026-04-21 18:03 48.60357 -4.36140 6037 ft 278 kts
2026-04-21 18:04 48.62203 -4.35455 6707 ft 273 kts 30°
2026-04-21 18:04 48.63669 -4.33680 7308 ft 272 kts 54°
2026-04-21 18:04 48.64552 -4.31166 7935 ft 273 kts 70°
2026-04-21 18:04 48.65261 -4.28484 8596 ft 277 kts 70°
2026-04-21 18:05 48.65992 -4.25755 9197 ft 283 kts 69°
2026-04-21 18:05 48.66745 -4.22971 9818 ft 289 kts 69°
2026-04-21 18:05 48.67516 -4.20130 10291 ft 299 kts 69°
2026-04-21 18:05 48.68334 -4.17112 10414 ft 321 kts 68°
2026-04-21 18:06 48.69211 -4.13887 10548 ft 342 kts 69°
2026-04-21 18:06 48.70140 -4.10470 10668 ft 361 kts 68°
2026-04-21 18:06 48.71119 -4.06864 10807 ft 378 kts 69°
2026-04-21 18:06 48.72129 -4.03131 11235 ft 386 kts 69°
2026-04-21 18:07 48.73151 -3.99341 11767 ft 390 kts 68°
2026-04-21 18:07 48.74183 -3.95514 12300 ft 395 kts 68°
2026-04-21 18:07 48.75225 -3.91648 12856 ft 398 kts 68°
2026-04-21 18:07 48.76280 -3.87737 13313 ft 404 kts 67°
2026-04-21 18:08 48.77346 -3.83770 13815 ft 408 kts 67°
2026-04-21 18:08 48.78420 -3.79758 14235 ft 413 kts 67°
2026-04-21 18:08 48.79505 -3.75703 14699 ft 416 kts 67°
2026-04-21 18:08 48.80593 -3.71628 15181 ft 419 kts 67°
2026-04-21 18:09 48.81694 -3.67503 15610 ft 423 kts 68°
2026-04-21 18:09 48.82796 -3.63364 16093 ft 425 kts 67°
2026-04-21 18:09 48.83532 -3.60596 16361 ft 428 kts 67°
2026-04-21 18:09 48.85017 -3.54982 16992 ft 431 kts 67°
2026-04-21 18:10 48.86115 -3.50718 17379 ft 435 kts 69°
2026-04-21 18:10 48.87181 -3.46411 17824 ft 438 kts 69°
2026-04-21 18:10 48.88239 -3.42041 18196 ft 443 kts 69°
2026-04-21 18:10 48.89298 -3.37637 18610 ft 445 kts 68°
2026-04-21 18:11 48.90366 -3.33198 18925 ft 449 kts 69°
2026-04-21 18:11 48.91447 -3.28728 19339 ft 451 kts 69°
2026-04-21 18:11 48.92168 -3.25754 19526 ft 455 kts 69°
2026-04-21 18:11 48.93636 -3.19706 20039 ft 458 kts 68°
2026-04-21 18:12 48.94627 -3.15147 20335 ft 463 kts 75°
2026-04-21 18:12 48.95185 -3.10330 20753 ft 465 kts 84°
2026-04-21 18:12 48.95271 -3.05391 21030 ft 469 kts 92°
2026-04-21 18:12 48.95119 -3.00420 21470 ft 470 kts 92°
2026-04-21 18:13 48.95023 -2.97064 21702 ft 472 kts 91°
2026-04-21 18:13 48.94886 -2.92058 22028 ft 475 kts 92°
2026-04-21 18:13 48.94753 -2.87036 22437 ft 476 kts 92°
2026-04-21 18:13 48.94616 -2.81988 22728 ft 480 kts 92°
2026-04-21 18:14 48.94325 -2.71796 23461 ft 484 kts 92°
2026-04-21 18:14 48.94170 -2.66663 23755 ft 487 kts 92°
2026-04-21 18:14 48.94012 -2.61593 24067 ft 488 kts 92°
2026-04-21 18:15 48.93846 -2.56422 24333 ft 490 kts 92°
2026-04-21 18:15 48.93678 -2.51230 24613 ft 492 kts 92°
2026-04-21 18:15 48.93510 -2.46017 24897 ft 494 kts 92°
2026-04-21 18:15 48.93343 -2.40791 25181 ft 496 kts 92°
2026-04-21 18:16 48.93172 -2.35528 25466 ft 499 kts 92°
2026-04-21 18:16 48.93000 -2.30258 25745 ft 501 kts 92°
2026-04-21 18:16 48.92824 -2.24959 26009 ft 503 kts 92°
2026-04-21 18:16 48.92644 -2.19653 26327 ft 503 kts 92°
2026-04-21 18:17 48.92462 -2.14345 26668 ft 503 kts 92°
2026-04-21 18:17 48.92277 -2.09035 27007 ft 503 kts 92°
2026-04-21 18:17 48.92088 -2.03724 27355 ft 503 kts 92°
2026-04-21 18:17 48.91898 -1.98426 27706 ft 502 kts 92°
2026-04-21 18:18 48.91705 -1.93129 28060 ft 502 kts 92°
2026-04-21 18:18 48.91507 -1.87833 28414 ft 501 kts 92°
2026-04-21 18:18 48.91305 -1.82539 28773 ft 501 kts 92°
2026-04-21 18:18 48.91105 -1.77250 29118 ft 501 kts 92°
2026-04-21 18:19 48.90904 -1.71971 29459 ft 501 kts 92°
2026-04-21 18:19 48.90690 -1.66689 29766 ft 501 kts 92°
2026-04-21 18:19 48.90463 -1.61393 30088 ft 501 kts 92°
2026-04-21 18:19 48.90285 -1.56104 30390 ft 500 kts 88°
2026-04-21 18:20 48.90514 -1.50852 30687 ft 497 kts 79°
2026-04-21 18:20 48.91220 -1.45726 30987 ft 494 kts 71°
2026-04-21 18:20 48.92367 -1.40833 31287 ft 490 kts 64°
2026-04-21 18:20 48.93661 -1.36038 31594 ft 490 kts 64°
2026-04-21 18:21 48.94949 -1.31239 31913 ft 489 kts 64°
2026-04-21 18:21 48.96225 -1.26448 32214 ft 489 kts 64°
2026-04-21 18:21 48.97497 -1.21649 32526 ft 488 kts 64°
2026-04-21 18:21 48.98763 -1.16852 32835 ft 488 kts 64°
2026-04-21 18:22 49.00024 -1.12062 33138 ft 487 kts 64°
2026-04-21 18:22 49.01286 -1.07269 33445 ft 487 kts 64°
2026-04-21 18:22 49.02545 -1.02485 33751 ft 486 kts 64°
2026-04-21 18:22 49.03801 -0.97701 34051 ft 486 kts 64°
2026-04-21 18:23 49.05060 -0.92897 34145 ft 486 kts 64°
2026-04-21 18:23 49.07549 -0.83351 34148 ft 486 kts 64°
2026-04-21 18:24 49.10042 -0.73745 34148 ft 486 kts 64°
2026-04-21 18:24 49.12526 -0.64160 34144 ft 487 kts 64°
2026-04-21 18:25 49.15006 -0.54545 34135 ft 487 kts 64°
2026-04-21 18:25 49.17702 -0.45105 34135 ft 481 kts 55°
2026-04-21 18:26 49.21488 -0.36786 34137 ft 476 kts 48°
2026-04-21 18:26 49.25387 -0.28598 34165 ft 476 kts 49°
2026-04-21 18:27 49.29265 -0.20380 34172 ft 476 kts 49°
2026-04-21 18:27 49.33140 -0.12150 34181 ft 476 kts 49°
2026-04-21 18:28 49.37017 -0.03911 34182 ft 476 kts 49°
2026-04-21 18:28 49.40890 0.04340 34177 ft 476 kts 48°
2026-04-21 18:29 49.44749 0.12604 34168 ft 476 kts 49°
2026-04-21 18:29 49.48606 0.20885 34191 ft 476 kts 49°
2026-04-21 18:30 49.52436 0.29126 34202 ft 476 kts 49°
2026-04-21 18:30 49.56287 0.37424 34210 ft 476 kts 48°
2026-04-21 18:31 49.60120 0.45740 34224 ft 476 kts 48°
2026-04-21 18:31 49.63948 0.54067 34222 ft 475 kts 48°
2026-04-21 18:32 49.67765 0.62383 34210 ft 475 kts 48°
2026-04-21 18:32 49.71566 0.70705 34213 ft 474 kts 48°
2026-04-21 18:33 49.75363 0.79033 34224 ft 474 kts 48°
2026-04-21 18:33 49.79145 0.87369 34221 ft 473 kts 48°
2026-04-21 18:34 49.82915 0.95688 34234 ft 471 kts 48°
2026-04-21 18:34 49.86673 1.03998 34223 ft 470 kts 48°
2026-04-21 18:35 49.89783 1.10903 34226 ft 469 kts 48°
2026-04-21 18:35 49.93789 1.21030 34220 ft 477 kts 58°
2026-04-21 18:36 49.96648 1.30324 34252 ft 477 kts 58°
2026-04-21 18:36 49.99518 1.39602 34233 ft 476 kts 57°
2026-04-21 18:37 50.02366 1.48848 34221 ft 473 kts 57°
2026-04-21 18:37 50.05198 1.58094 34211 ft 474 kts 57°
2026-04-21 18:38 50.08024 1.67354 34221 ft 474 kts 57°
2026-04-21 18:38 50.10845 1.76627 34215 ft 474 kts 58°
2026-04-21 18:39 50.13341 1.86187 34238 ft 484 kts 69°
2026-04-21 18:39 50.14373 1.96658 34234 ft 491 kts 77°
2026-04-21 18:40 50.15172 2.07244 34226 ft 491 kts 77°
2026-04-21 18:40 50.15839 2.16037 34223 ft 491 kts 77°
2026-04-21 18:41 50.16758 2.28349 34221 ft 492 kts 77°
2026-04-21 18:41 50.17529 2.38921 34233 ft 489 kts 78°
2026-04-21 18:42 50.18278 2.49433 34239 ft 487 kts 78°
2026-04-21 18:42 50.19021 2.59914 34233 ft 486 kts 78°
2026-04-21 18:43 50.19761 2.70401 34235 ft 486 kts 78°
2026-04-21 18:43 50.20494 2.80869 34248 ft 485 kts 78°
2026-04-21 18:44 50.21215 2.91328 34259 ft 484 kts 78°
2026-04-21 18:44 50.22029 3.01717 34236 ft 478 kts 71°
2026-04-21 18:44 50.23006 3.06618 34236 ft 468 kts 60°
2026-04-21 18:45 50.24483 3.11074 34235 ft 458 kts 50°
2026-04-21 18:45 50.28640 3.18265 34226 ft 439 kts 31°
2026-04-21 18:46 50.33845 3.22862 34259 ft 426 kts 19°
2026-04-21 18:46 50.39299 3.26682 34249 ft 427 kts 19°
2026-04-21 18:47 50.44665 3.30640 34234 ft 430 kts 21°
2026-04-21 18:47 50.50002 3.34904 34231 ft 431 kts 22°
2026-04-21 18:48 50.55383 3.39028 34232 ft 429 kts 19°
2026-04-21 18:48 50.60863 3.42745 34248 ft 429 kts 18°
2026-04-21 18:49 50.66362 3.46397 34245 ft 429 kts 19°
2026-04-21 18:49 50.70926 3.49508 34242 ft 430 kts 19°
2026-04-21 18:50 50.77330 3.53965 34244 ft 431 kts 19°
2026-04-21 18:50 50.82809 3.57797 34262 ft 431 kts 20°
2026-04-21 18:51 50.88295 3.61640 34256 ft 431 kts 20°
2026-04-21 18:51 50.93793 3.65488 34253 ft 432 kts 20°
2026-04-21 18:52 50.99280 3.69402 34250 ft 433 kts 21°
2026-04-21 18:52 51.04760 3.73365 34261 ft 433 kts 21°
2026-04-21 18:53 51.10240 3.77339 34268 ft 433 kts 21°
2026-04-21 18:53 51.15725 3.81311 34287 ft 433 kts 21°
2026-04-21 18:54 51.21217 3.85291 34260 ft 434 kts 22°
2026-04-21 18:54 51.26713 3.89295 34264 ft 434 kts 22°
2026-04-21 18:55 51.31276 3.92634 34273 ft 434 kts 22°
2026-04-21 18:55 51.37663 3.97310 34273 ft 434 kts 22°
2026-04-21 18:56 51.42258 4.00695 34280 ft 434 kts 22°
2026-04-21 18:56 51.48642 4.05410 34280 ft 434 kts 22°
2026-04-21 18:57 51.54137 4.09461 34259 ft 436 kts 23°
2026-04-21 18:57 51.56891 4.11498 33982 ft 436 kts 23°
2026-04-21 18:57 51.58751 4.12878 33796 ft 436 kts 23°
2026-04-21 18:57 51.62400 4.15591 33434 ft 436 kts 24°
2026-04-21 18:58 51.64223 4.16950 33262 ft 436 kts 24°
2026-04-21 18:58 51.66981 4.19004 33004 ft 437 kts 24°
2026-04-21 18:58 51.69741 4.21062 32738 ft 437 kts 24°
2026-04-21 18:58 51.72498 4.23121 32484 ft 437 kts 24°
2026-04-21 18:59 51.75262 4.25188 32226 ft 438 kts 25°
2026-04-21 18:59 51.78065 4.27287 31960 ft 439 kts 25°
2026-04-21 18:59 51.80801 4.29337 31708 ft 439 kts 25°
2026-04-21 18:59 51.83574 4.31422 31455 ft 440 kts 25°
2026-04-21 19:00 51.86386 4.33544 31192 ft 440 kts 26°
2026-04-21 19:00 51.89165 4.35643 30949 ft 441 kts 26°
2026-04-21 19:00 51.91942 4.37744 30701 ft 441 kts 26°
2026-04-21 19:00 51.94724 4.39849 30462 ft 441 kts 26°
2026-04-21 19:01 51.97505 4.41953 30170 ft 442 kts 27°
2026-04-21 19:01 52.00293 4.44063 29872 ft 443 kts 27°
2026-04-21 19:01 52.03085 4.46177 29590 ft 443 kts 27°
2026-04-21 19:01 52.05880 4.48301 29319 ft 444 kts 27°
2026-04-21 19:02 52.08676 4.50429 29036 ft 444 kts 27°
2026-04-21 19:02 52.11443 4.52532 28754 ft 445 kts 27°
2026-04-21 19:02 52.14243 4.54665 28478 ft 445 kts 27°
2026-04-21 19:02 52.17049 4.56809 28201 ft 446 kts 27°
2026-04-21 19:03 52.19857 4.58960 27879 ft 446 kts 28°
2026-04-21 19:03 52.22668 4.61120 26763 ft 451 kts 28°
2026-04-21 19:03 52.25524 4.63318 25704 ft 455 kts 27°
2026-04-21 19:03 52.28371 4.65511 25246 ft 451 kts 27°
2026-04-21 19:04 52.31202 4.67692 24595 ft 452 kts 27°
2026-04-21 19:04 52.34048 4.69886 23954 ft 452 kts 27°
2026-04-21 19:04 52.36886 4.72076 23231 ft 449 kts 27°
2026-04-21 19:04 52.39698 4.74247 22605 ft 445 kts 27°
2026-04-21 19:05 52.42484 4.76401 21969 ft 441 kts 27°
2026-04-21 19:05 52.45246 4.78541 21338 ft 437 kts 27°
2026-04-21 19:05 52.47985 4.80667 20710 ft 433 kts 27°
2026-04-21 19:05 52.50631 4.82920 20099 ft 427 kts 34°
2026-04-21 19:06 52.52988 4.85821 19491 ft 421 kts 43°
2026-04-21 19:06 52.54979 4.89305 18890 ft 416 kts 53°
2026-04-21 19:06 52.56558 4.93249 18436 ft 412 kts 62°
2026-04-21 19:06 52.57890 4.97421 18302 ft 411 kts 63°
2026-04-21 19:07 52.59228 5.01580 18331 ft 412 kts 62°
2026-04-21 19:07 52.60573 5.05740 18340 ft 411 kts 62°
2026-04-21 19:07 52.61917 5.09898 18334 ft 411 kts 62°
2026-04-21 19:07 52.63248 5.14036 17997 ft 406 kts 62°
2026-04-21 19:08 52.64493 5.17915 17284 ft 403 kts 62°
2026-04-21 19:08 52.65791 5.21970 16560 ft 399 kts 63°
2026-04-21 19:08 52.67075 5.25996 15856 ft 395 kts 63°
2026-04-21 19:08 52.68341 5.29980 15180 ft 391 kts 63°
2026-04-21 19:09 52.69593 5.33930 14527 ft 387 kts 63°
2026-04-21 19:09 52.70833 5.37851 13838 ft 384 kts 63°
2026-04-21 19:09 52.72048 5.41702 13531 ft 370 kts 63°
2026-04-21 19:09 52.73221 5.45425 13004 ft 364 kts 63°
2026-04-21 19:10 52.74357 5.49037 12744 ft 340 kts 63°
2026-04-21 19:10 52.75415 5.52398 12044 ft 323 kts 63°
2026-04-21 19:10 52.76417 5.55576 11724 ft 298 kts 63°
2026-04-21 19:10 52.77332 5.58481 11442 ft 276 kts 63°
2026-04-21 19:11 52.78203 5.61252 10880 ft 270 kts 63°
2026-04-21 19:11 52.79063 5.63992 10791 ft 270 kts 63°
2026-04-21 19:11 52.79925 5.66745 10674 ft 270 kts 63°
2026-04-21 19:11 52.80787 5.69502 10559 ft 270 kts 63°
2026-04-21 19:12 52.81646 5.72256 10439 ft 270 kts 63°
2026-04-21 19:12 52.82503 5.75011 10316 ft 269 kts 63°
2026-04-21 19:12 52.83368 5.77784 9848 ft 272 kts 63°
2026-04-21 19:12 52.84230 5.80555 9433 ft 270 kts 63°
2026-04-21 19:13 52.85087 5.83307 9035 ft 268 kts 63°
2026-04-21 19:13 52.85939 5.86043 8645 ft 266 kts 63°
2026-04-21 19:13 52.86782 5.88757 8252 ft 265 kts 63°
2026-04-21 19:13 52.87621 5.91463 7869 ft 263 kts 63°
2026-04-21 19:14 52.88453 5.94153 7483 ft 262 kts 63°
2026-04-21 19:14 52.89280 5.96830 7101 ft 260 kts 63°
2026-04-21 19:14 52.90102 5.99494 6693 ft 259 kts 63°
2026-04-21 19:14 52.90919 6.02149 6312 ft 258 kts 63°
2026-04-21 19:15 52.91731 6.04783 5929 ft 256 kts 63°
2026-04-21 19:15 52.92536 6.07402 5560 ft 254 kts 63°
2026-04-21 19:15 52.93335 6.10008 5056 ft 257 kts 63°
2026-04-21 19:15 52.94138 6.12625 4772 ft 251 kts 63°
2026-04-21 19:16 52.94921 6.15175 4361 ft 245 kts 64°
2026-04-21 19:16 52.95685 6.17670 3825 ft 246 kts 64°
2026-04-21 19:16 52.96452 6.20182 3737 ft 245 kts 64°
2026-04-21 19:16 52.97235 6.22746 3638 ft 246 kts 64°
2026-04-21 19:17 52.98770 6.27769 3407 ft 245 kts 64°
2026-04-21 19:17 52.99535 6.30271 3307 ft 239 kts 64°
2026-04-21 19:17 53.00267 6.32667 3206 ft 227 kts 64°
2026-04-21 19:18 53.01032 6.34840 3106 ft 212 kts 54°
2026-04-21 19:18 53.01938 6.36738 2825 ft 206 kts 54°
2026-04-21 19:18 53.02798 6.38545 2588 ft 192 kts 54°
2026-04-21 19:18 53.03595 6.40224 2349 ft 179 kts 54°
2026-04-21 19:19 53.04343 6.41803 2138 ft 168 kts 54°
2026-04-21 19:19 53.05029 6.43247 1960 ft 150 kts 54°
2026-04-21 19:19 53.05654 6.44595 1762 ft 144 kts 54°
2026-04-21 19:19 53.06247 6.45889 1570 ft 138 kts 54°
2026-04-21 19:20 53.06822 6.47144 1392 ft 135 kts 54°
2026-04-21 19:20 53.07388 6.48381 1207 ft 134 kts 54°
2026-04-21 19:20 53.07969 6.49596 1037 ft 134 kts 52°
2026-04-21 19:20 53.08555 6.50807 850 ft 134 kts 53°
2026-04-21 19:21 53.09140 6.52020 696 ft 134 kts 51°
2026-04-21 19:21 53.09727 6.53240 498 ft 135 kts 51°
2026-04-21 19:21 53.10310 6.54456 313 ft 135 kts 50°
2026-04-21 19:21 53.10900 6.55671 122 ft 134 kts 47°
2026-04-21 19:22 53.11474 6.56863 33 ft 124 kts 51°
2026-04-21 19:22 53.11911 6.57788 36 ft 75 kts 51°
2026-04-21 19:22 53.12130 6.58254 36 ft 36 kts 52°
2026-04-21 19:22 53.12288 6.58585 27 ft 36 kts 51°
2026-04-21 19:23 53.12414 6.58855 29 ft 16 kts 51°
2026-04-21 19:23 53.12461 6.58952 28 ft 6 kts 51°
2026-04-21 19:23 53.12526 6.58978 28 ft 12 kts 349°
2026-04-21 19:23 53.12598 6.58919 28 ft 12 kts 317°
2026-04-21 19:24 53.12654 6.58808 30 ft 13 kts 309°
2026-04-21 19:24 53.12710 6.58692 24 ft 12 kts 306°
2026-04-21 19:24 53.12736 6.58616 22 ft 5 kts 309°
2026-04-21 19:24 53.12763 6.58598 22 ft 4 kts 352°
2026-04-21 19:25 53.12784 6.58595 23 ft 2 kts 355°
2026-04-21 19:25 53.12805 6.58592 22 ft 4 kts 355°
2026-04-21 19:25 53.12815 6.58591 22 ft 0 kts 355°